STARLINK-1014 (44720 NORAD) Tracking and Keplerian Element Data

This shows tracking and keplerian element data for the satellite.

Feedback or suggestion? Click here.




ElementValue
Catalog44720
NameSTARLINK-1014
Epoch Orbit1066
Epoch Day18.25002315
Epoch Year2020
RAAN194.2034
Inclination53.0067
Eccentricity0.0004268
Argument of Perigee344.1664
Mean Anonmoly44.2583
Mean Motion15.73166289
Decay Rate0.00290108
L11 44720U 19074H 20018.25002315 .00290108 00000-0 20029-2 0 9992
L22 44720 53.0067 194.2034 0004268 344.1664 44.2583 15.73166289 10668

Live tracking and technical data element details for STARLINK-1014 (NORAD 44720). STARLINK-1014 can be tracked NOW for your location showing map with azimuth and elevation plus other details from your city location.

Track the satellite on the map from your city or location and see movement details for azimuth, elevation, latitude, longitude, range, height, and movement on the map or in text.







IsCatalogInMostPopularTable: catalog: 44720, numindb: 8
Update: records affected: 1



GetName: 44720 STARLINK-1014

Hit Count: updated at: Mon, 20 Jan 2020 03:16:48 GMT